This is the latest recevied weather packets stored in our database for station/object KF4WSW-13. If no packets are shown the sender has not sent any weather packets the latest 10 day(s).
| Time | Temp. | Humidity | Pressure | Rain* | Wind** | Luminosity | Snow |
|---|---|---|---|---|---|---|---|
| 1777939506 | 23.89° C | 61% | 1012.6 hPa | 0 mm | - | 4 W/m² | - |
| 1777939203 | 23.89° C | 62% | 1012.6 hPa | 0 mm | - | 6 W/m² | - |
| 1777938900 | 23.89° C | 61% | 1012.4 hPa | 0 mm | - | 9 W/m² | - |
| 1777938596 | 24.44° C | 61% | 1012.3 hPa | 0 mm | - | 13 W/m² | - |
| 1777938293 | 24.44° C | 61% | 1012.1 hPa | 0 mm | - | 18 W/m² | - |
| 1777937990 | 24.44° C | 62% | 1011.8 hPa | 0 mm | - | 25 W/m² | - |
| 1777937685 | 24.44° C | 62% | 1012 hPa | 0 mm | - | 29 W/m² | - |
| 1777937383 | 24.44° C | 61% | 1011.9 hPa | 0 mm | - | 28 W/m² | - |
| 1777937080 | 24.44° C | 62% | 1012.1 hPa | 0 mm | - | 29 W/m² | - |
| 1777936777 | 24.44° C | 63% | 1012 hPa | 0 mm | - | 31 W/m² | - |
| 1777936473 | 24.44° C | 62% | 1012.2 hPa | 0 mm | - | 36 W/m² | - |
| 1777936169 | 24.44° C | 61% | 1012.1 hPa | 0 mm | - | 44 W/m² | - |
| 1777935866 | 24.44° C | 62% | 1012.1 hPa | 0 mm | - | 42 W/m² | - |
| 1777935565 | 24.44° C | 59% | 1011.9 hPa | 0 mm | - | 43 W/m² | - |
| 1777935262 | 25° C | 62% | 1012.1 hPa | 0 mm | - | 55 W/m² | - |
| 1777934959 | 24.44° C | 63% | 1011.8 hPa | 0 mm | - | 45 W/m² | - |
| 1777934655 | 25° C | 60% | 1011.9 hPa | 0 mm | - | 46 W/m² | - |
| 1777934353 | 25° C | 61% | 1012.2 hPa | 0 mm | - | 54 W/m² | - |
| 1777934048 | 25° C | 59% | 1012.1 hPa | 0 mm | - | 48 W/m² | - |
| 1777933744 | 25° C | 59% | 1012 hPa | 0 mm | - | 58 W/m² | - |
| 1777933442 | 25° C | 59% | 1012.1 hPa | 0 mm | - | 56 W/m² | - |
| 1777933140 | 25° C | 60% | 1012.2 hPa | 0 mm | - | 62 W/m² | - |
| 1777932836 | 25° C | 59% | 1012.2 hPa | 0 mm | - | 144 W/m² | - |
| 1777932534 | 25° C | 61% | 1012.2 hPa | 0 mm | - | 83 W/m² | - |
| 1777932230 | 25° C | 59% | 1012.2 hPa | 0 mm | - | 79 W/m² | - |
* Rain latest hour (hover to see other rain measurements)
** Current wind speed in m/s (hover to see current wind gust speed)